GW4708 Weather Reports


time (UTC)temp
F
wind
direction
speed
knots
gust
knots
rain 1hr
in
rain 24hr
in
rain mn
in
humidity
%
barometer
mb
20260505070004 56 136 0.9 6.1 0.00 0.18 0.00 49 1007.6
20260505064504 57 60 0.9 7.0 0.00 0.18 0.00 47 1007.1
20260505063009 57 139 0.9 7.8 0.00 0.18 0.00 47 1006.9
20260505061517 58 172 1.7 7.8 0.00 0.18 0.00 46 1006.7
20260505060004 59 18 0.0 7.0 0.00 0.18 0.00 46 1006.2
20260505054504 60 265 0.9 8.7 0.00 0.18 0.00 45 1005.6
20260505053007 61 275 0.9 4.3 0.00 0.18 0.00 45 1005.4
20260505051518 62 14 0.9 7.8 0.00 0.18 0.00 44 1005.1
20260505041510 62 293 0.0 1.7 0.02 0.18 0.18 54 1005.0
20260505040012 61 259 0.0 1.7 0.18 0.18 0.18 61 1005.5
20260505034517 60 112 0.0 1.7 0.18 0.18 0.18 66 1005.4
20260505033024 60 278 0.0 3.5 0.17 0.17 0.17 73 1005.3
20260505031521 62 274 0.0 6.1 0.16 0.16 0.16 69 1005.2
20260505030010 72 11 0.0 7.0 0.00 0.00 0.00 44 1004.3
20260505024515 72 311 0.0 0.9 0.00 0.00 0.00 50 1003.3
20260505023022 72 122 0.0 0.0 0.00 0.00 0.00 50 1002.1
20260505021525 73 84 0.0 0.0 0.00 0.00 0.00 50 1001.5
20260505020008 74 147 0.0 0.0 0.00 0.00 0.00 48 1001.6
20260505014516 75 147 0.0 0.0 0.00 0.00 0.00 46 1001.5
20260505013017 76 132 0.0 0.0 0.00 0.00 0.00 42 1001.5
20260505011522 77 82 0.0 0.0 0.00 0.00 0.00 39 1001.1
20260505010025 78 76 0.0 0.0 0.00 0.00 0.00 37 1001.0
20260505004509 79 80 0.0 0.0 0.00 0.00 0.00 36 1001.0
20260505003012 80 88 0.0 0.0 0.00 0.00 0.00 33 1001.1
20260505001518 82 57 0.0 0.0 0.00 0.00 0.00 33 1001.1
20260505000021 83 50 0.0 0.9 0.00 0.00 0.00 30 1001.1
20260504234528 85 23 0.0 1.7 0.00 0.00 0.00 28 1001.2
20260504233008 85 89 0.0 0.9 0.00 0.00 0.00 26 1001.2
20260504231513 86 47 0.0 0.9 0.00 0.00 0.00 25 1001.3
20260504230020 87 63 0.0 0.0 0.00 0.00 0.00 25 1001.3
20260504224528 85 101 0.0 0.0 0.00 0.00 0.00 26 1001.4
20260504223025 85 82 0.0 0.0 0.00 0.00 0.00 26 1001.3
20260504221512 85 121 0.0 0.9 0.00 0.00 0.00 27 1001.2
20260504220016 87 55 0.0 1.7 0.00 0.00 0.00 27 1001.3
20260504214503 88 101 0.0 0.9 0.00 0.00 0.00 26 1001.3
20260504213003 86 87 0.0 2.6 0.00 0.00 0.00 28 1001.6
20260504211507 87 79 0.0 0.9 0.00 0.00 0.00 29 1001.7
20260504210015 86 224 0.0 0.9 0.00 0.00 0.00 27 1001.8
20260504204502 86 80 0.0 0.9 0.00 0.00 0.00 29 1002.2
20260504203004 85 131 0.0 0.9 0.00 0.00 0.00 32 1002.5
20260504201508 85 103 0.0 0.9 0.00 0.00 0.00 34 1002.6
20260504200014 85 129 0.0 0.9 0.00 0.00 0.00 30 1002.8
20260504194514 85 114 0.0 0.9 0.00 0.00 0.00 31 1002.8
20260504193018 84 115 0.0 0.9 0.00 0.00 0.00 33 1002.9
20260504191506 84 83 0.0 0.9 0.00 0.00 0.00 31 1003.0
20260504190011 84 134 0.0 0.9 0.00 0.00 0.00 29 1003.2
20260504184515 85 307 0.0 0.9 0.00 0.00 0.00 28 1003.1
20260504183023 84 108 0.0 0.9 0.00 0.00 0.00 31 1003.3
20260504181519 85 271 0.0 0.9 0.00 0.00 0.00 33 1003.3
20260504180006 84 311 0.0 0.9 0.00 0.00 0.00 34 1003.4
20260504174508 83 115 0.0 0.9 0.00 0.00 0.00 32 1003.5
20260504173012 83 295 0.0 0.9 0.00 0.00 0.00 33 1003.5
20260504171521 82 56 0.0 0.9 0.00 0.00 0.00 36 1003.6
20260504081519 59 272 0.0 0.0 0.00 0.00 0.00 56 1003.9